Location: Sandbach
(53.1410°N, 2.3660°W)
Time: 21:56:05
(UTC+00:00)

ISS - Pass Details

Date: 06 December 2021
Orbit: 413 x 422 km, 51.6° (Epoch: 23 January)

Event Time Altitude Azimuth Distance (km) Brightness Sun altitude
Rises 16:50:33 0° 279° (W) 2,387 1.0 -8.1°
Reaches altitude 10° 16:52:44 10° 272° (W) 1,518 0.2 -8.4°
Maximum altitude 16:55:56 38° 202° (SSW) 665 -2.3 -8.8°
Drops below altitude 10° 16:59:06 10° 133° (SE) 1,507 -1.2 -9.2°
Enters shadow 17:01:49 -2° 124° (SE) 2,589 0.0 -9.6°
